K7LWV Weather Reports


time (UTC)temp
C
wind
direction
speed
KPH
gust
KPH
rain 1hr
cm
rain 24hr
cm
rain mn
cm
humidity
%
barometer
mb
20260505153027 12 201 0.0 1.6 0.00 0.00 0.00 1 1016.3
20260505151538 11 212 0.0 3.2 0.00 0.00 0.00 1 1016.3
20260505130103 9 240 0.0 0.0 0.00 0.00 0.00 1 1015.4
20260505124506 9 240 0.0 0.0 0.00 0.00 0.00 1 1015.5
20260505123007 8 240 0.0 0.0 0.00 0.00 0.00 1 1015.3
20260505121510 8 240 0.0 0.0 0.00 0.00 0.00 1 1015.3
20260505120016 8 240 0.0 0.0 0.00 0.00 0.00 1 1015.3
20260505114518 8 240 0.0 0.0 0.00 0.00 0.00 1 1015.3
20260505113034 9 240 0.0 0.0 0.00 0.00 0.00 1 1015.2
20260505111539 8 240 0.0 0.0 0.00 0.00 0.00 1 1015.2
20260505101543 8 101 0.0 0.0 0.00 0.00 0.00 1 1014.6
20260505100044 8 100 0.0 0.0 0.00 0.00 0.00 1 1014.7
20260505094558 8 101 0.0 0.0 0.00 0.00 0.00 1 1014.7
20260505093055 8 100 0.0 0.0 0.00 0.00 0.00 1 1014.6
20260505091602 8 225 0.0 0.0 0.00 0.00 0.00 1 1014.5
20260505084607 8 225 0.0 0.0 0.00 0.00 0.00 1 1014.4
20260505083005 9 225 0.0 0.0 0.00 0.00 0.00 1 1014.4
20260505081507 9 225 0.0 0.0 0.00 0.00 0.00 1 1014.3
20260505080022 9 225 0.0 0.0 0.00 0.00 0.00 1 1014.1
20260505074515 9 225 0.0 0.0 0.00 0.00 0.00 1 1014.1
20260505073019 10 225 0.0 0.0 0.00 0.00 0.00 1 1013.9
20260505071523 10 225 0.0 0.0 0.00 0.00 0.00 1 1013.8
20260505070028 10 225 0.0 0.0 0.00 0.00 0.00 1 1013.8
20260505064533 10 225 0.0 0.0 0.00 0.00 0.00 1 1013.6
20260505063035 10 225 0.0 0.0 0.00 0.00 0.00 1 1013.6
20260505061603 11 225 0.0 0.0 0.00 0.00 0.00 1 1013.6
20260505060050 11 225 0.0 0.0 0.00 0.00 0.00 1 1013.6
20260505054549 11 225 0.0 0.0 0.00 0.00 0.00 1 1013.5
20260505053050 11 153 0.0 0.0 0.00 0.00 0.00 3 1013.5
20260505051554 11 153 0.0 0.0 0.00 0.00 0.00 11 1013.4
20260505041505 13 235 0.0 0.0 0.00 0.00 0.00 37 1012.6
20260505040019 13 342 0.0 0.0 0.00 0.00 0.00 46 1012.2
20260505034513 14 345 0.0 0.0 0.00 0.00 0.00 53 1011.9
20260505033017 15 345 0.0 3.2 0.00 0.00 0.00 60 1011.9
20260505031521 16 345 0.0 1.6 0.00 0.00 0.00 63 1011.6
20260505030024 16 345 0.0 1.6 0.00 0.00 0.00 64 1011.4
20260505024528 17 345 0.0 0.0 0.00 0.00 0.00 65 1011.2
20260505023032 17 344 0.0 3.2 0.00 0.00 0.00 65 1011.0
20260505021537 18 16 1.6 8.0 0.00 0.00 0.00 64 1011.0
20260505020042 18 100 1.6 6.4 0.00 0.00 0.00 65 1011.0
20260505014544 20 96 0.0 9.7 0.00 0.00 0.00 63 1010.9
20260505013047 21 197 3.2 11.3 0.00 0.00 0.00 62 1010.9
20260505011551 21 122 0.0 8.0 0.00 0.00 0.00 62 1011.1
20260505010104 21 200 4.8 12.9 0.00 0.00 0.00 61 1011.1
20260505004601 21 214 1.6 12.9 0.00 0.00 0.00 60 1011.1
20260505003102 22 160 3.2 11.3 0.00 0.00 0.00 60 1011.1
20260505001503 22 134 3.2 8.0 0.00 0.00 0.00 59 1011.2
20260505000006 22 233 0.0 8.0 0.00 0.00 0.00 59 1011.3
20260504234511 21 176 4.8 12.9 0.00 0.00 0.00 60 1011.3
20260504233014 21 250 1.6 16.1 0.00 0.00 0.00 60 1011.5
20260504231517 21 228 6.4 17.7 0.00 0.00 0.00 60 1011.5
20260504230021 22 217 4.8 14.5 0.00 0.00 0.00 59 1011.5
20260504224525 22 194 0.0 9.7 0.00 0.00 0.00 61 1011.6
20260504223029 21 141 6.4 17.7 0.00 0.00 0.00 61 1011.9
20260504221543 21 132 6.4 16.1 0.00 0.00 0.00 62 1011.9
20260504220055 21 94 4.8 16.1 0.00 0.00 0.00 60 1012.1
20260504214550 21 187 3.2 11.3 0.00 0.00 0.00 61 1012.3
20260504213109 21 117 0.0 14.5 0.00 0.00 0.00 62 1012.3
20260504211555 21 134 3.2 12.9 0.00 0.00 0.00 62 1012.5
20260504210104 21 132 0.0 14.5 0.00 0.00 0.00 62 1012.5
20260504204606 21 274 3.2 12.9 0.00 0.00 0.00 61 1012.8
20260504203002 21 211 0.0 9.7 0.00 0.00 0.00 61 1012.9
20260504201504 20 176 0.0 6.4 0.00 0.00 0.00 62 1012.9
20260504200009 20 131 0.0 9.7 0.00 0.00 0.00 61 1012.9
20260504194512 19 94 1.6 6.4 0.00 0.00 0.00 62 1012.9
20260504193025 20 197 4.8 9.7 0.00 0.00 0.00 62 1013.0
20260504191529 18 238 1.6 8.0 0.00 0.00 0.00 62 1013.1
20260504190034 18 225 0.0 8.0 0.00 0.00 0.00 62 1013.2
20260504184536 18 180 0.0 9.7 0.00 0.00 0.00 62 1013.3
20260504183054 18 120 3.2 8.0 0.00 0.00 0.00 61 1013.3
20260504181543 17 77 1.6 8.0 0.00 0.00 0.00 61 1013.3
20260504180122 16 125 0.0 6.4 0.00 0.00 0.00 57 1013.3
20260504174551 17 125 0.0 3.2 0.00 0.00 0.00 59 1013.4
20260504173052 16 193 0.0 4.8 0.00 0.00 0.00 52 1013.4
20260504171556 15 39 0.0 6.4 0.00 0.00 0.00 44 1013.5